This is the latest recevied weather packets stored in our database for station/object N8WJW. If no packets are shown the sender has not sent any weather packets the latest 10 day(s).
| Time | Temp. | Humidity | Pressure | Rain* | Wind** | Luminosity | Snow |
|---|---|---|---|---|---|---|---|
| 1777548753 | 3.89° C | 99% | 1013.5 hPa | 0 mm | - | 31 W/m² | - |
| 1777548451 | 3.89° C | 99% | 1013.5 hPa | 0 mm | - | 28 W/m² | - |
| 1777548147 | 3.89° C | 99% | 1013.3 hPa | 0 mm | - | 26 W/m² | - |
| 1777547844 | 3.89° C | 99% | 1013.2 hPa | 0 mm | - | 20 W/m² | - |
| 1777547540 | 3.89° C | 99% | 1013.3 hPa | 0 mm | - | 16 W/m² | - |
| 1777547238 | 3.89° C | 99% | 1013.2 hPa | 0 mm | - | 15 W/m² | - |
| 1777546935 | 3.89° C | 99% | 1013 hPa | 0 mm | - | 13 W/m² | - |
| 1777546632 | 3.89° C | 99% | 1013 hPa | 0 mm | - | 10 W/m² | - |
| 1777546328 | 3.89° C | 99% | 1013 hPa | 0 mm | - | 7 W/m² | - |
| 1777546026 | 3.89° C | 99% | 1012.9 hPa | 0 mm | - | 4 W/m² | - |
| 1777545721 | 3.89° C | 99% | 1012.9 hPa | 0 mm | - | 2 W/m² | - |
| 1777545419 | 3.89° C | 99% | 1012.8 hPa | 0 mm | - | 1 W/m² | - |
| 1777545115 | 3.89° C | 99% | 1012.7 hPa | 0 mm | - | 1 W/m² | - |
| 1777544813 | 3.89° C | 99% | 1012.7 hPa | 0 mm | - | 1 W/m² | - |
| 1777544508 | 3.89° C | 99% | 1012.6 hPa | 0 mm | - | 0 W/m² | - |
| 1777544205 | 3.89° C | 99% | 1012.6 hPa | 0 mm | - | 0 W/m² | - |
| 1777543902 | 3.89° C | 99% | 1012.7 hPa | 0 mm | - | 0 W/m² | - |
| 1777543599 | 3.89° C | 99% | 1012.6 hPa | 0 mm | - | 0 W/m² | - |
| 1777543295 | 3.89° C | 99% | 1012.5 hPa | 0 mm | - | 0 W/m² | - |
| 1777542991 | 3.89° C | 99% | 1012.5 hPa | 0 mm | - | 0 W/m² | - |
| 1777542687 | 4.44° C | 99% | 1012.7 hPa | 0 mm | - | 0 W/m² | - |
| 1777542384 | 4.44° C | 99% | 1012.6 hPa | 0 mm | - | 0 W/m² | - |
| 1777542080 | 4.44° C | 99% | 1012.6 hPa | 0 mm | - | 0 W/m² | - |
| 1777541778 | 4.44° C | 99% | 1012.4 hPa | 0 mm | - | 0 W/m² | - |
| 1777541474 | 4.44° C | 99% | 1012.3 hPa | 0 mm | - | 0 W/m² | - |
* Rain latest hour (hover to see other rain measurements)
** Current wind speed in m/s (hover to see current wind gust speed)